Powrót do katalogu

STARLINK-30349

AktywnyŁącznośćVLEO
NORAD 57713·PAYLOAD·🇺🇸 United States

Wystrzelony Aug 27, 2023 z Cape Canaveral Space Force Station

Loading…

Następne Przeloty (najbliższe 24 godziny)

TLE

ŚwieżeSource: CelesTrak SupGP

Epoka: Sep 15, 2026, 01:44 UTC

1 57713C 23129R   26258.07270833  .00048428  00000+0  17542-2 0  2587
2 57713  42.9993 128.5666 0001187 281.3789  89.7167 15.27551808    11

Śledź STARLINK-30349 w czasie rzeczywistym z AllMySat

Download on the App Store